Regional Weather Roundup
Issued by NWS Grand Forks, ND

Home | Current Version | Previous Version | Text Only | Print | Product List | Glossary Off
Versions: 1 2 3 4 5 6 7 8 9 10 11 12 13 14 15 16 17 18 19 20 21 22 23 24 25 26 27 28 29 30 31 32 33 34 35 36 37 38 39 40 41 42 43 44 45 46 47 48 49 50

000
ASUS43 KFGF 290031
RWRFGF
PRAIRIE TO PINES  WEATHER ROUNDUP
NATIONAL WEATHER SERVICE EASTERN NORTH DAKOTA/GRAND FORKS ND
700 PM CDT SAT MAY 28 2016

 **SATELLITE DATA USED TO AUGMENT SKY COVER AT AUTOMATED STATIONS**
 *****  WEATHER ACROSS EASTERN NORTH DAKOTA  *****

CITY           SKY/WX    TMP DP  RH WIND       PRES   REMARKS
GRAND FORKS    LGT RAIN  64  59  83 E7        29.83R
6HR MIN TEMP:  64; 6HR MAX TEMP:  73; 6HR PCP: TRACE;

GRAND FRKS AFB CLOUDY    66  59  77 E9        29.84R
GRAND FRKS NWS   N/A     63 N/A N/A NE2         N/A
DEVILS LAKE    NOT AVBL
FARGO          CLOUDY    66  58  75 NE12      29.81S
WAHPETON ARPT  CLOUDY    64  54  68 N10       29.81S
$$

 ***** WEATHER ACROSS CENTRAL AND WESTERN NORTH DAKOTA  *****

CITY           SKY/WX    TMP DP  RH WIND       PRES   REMARKS
BISMARCK       HVY RAIN  59  57  93 NW15      29.91S FOG
6HR MIN TEMP:  61; 6HR MAX TEMP:  72; 6HR PCP:  0.04;

MINOT          CLOUDY    69  52  54 NW3       29.88R
6HR MIN TEMP:  63; 6HR MAX TEMP:  73;

JAMESTOWN      CLOUDY    70  53  54 NW10      29.84R
6HR MIN TEMP:  64; 6HR MAX TEMP:  71;

MINOT AFB      MOSUNNY   66  53  62 VRB5      29.87S
GARRISON         N/A     60  53  77 W8        29.90R
WILLISTON      LGT RAIN  61  56  83 W3        29.92R
6HR MIN TEMP:  58; 6HR MAX TEMP:  71; 6HR PCP:  0.09;

DICKINSON      LGT RAIN  65  50  58 W5        29.89S
6HR MIN TEMP:  54; 6HR MAX TEMP:  72; 6HR PCP:  0.07;

HETTINGER      MOSUNNY   66  50  56 N7        29.92R
6HR MIN TEMP:  56; 6HR MAX TEMP:  74; 6HR PCP:  0.11;

$$

 *****  OTHER AIRPORT OBSERVATIONS IN OUR AREA  *****

CITY           SKY/WX    TMP DP  RH WIND       PRES   REMARKS
WALHALLA       FAIR      63  63 100 N10       29.88R
GRAFTON AIRPOR RAIN      61  61 100 N12       29.87R
VALLEY CITY AR CLOUDY    68  57  68 NE5       29.86R
CANDO          CLOUDY    63  59  88 N10G20    29.92R
CAVALIER APRT  MOCLDY    66  59  77 N9G17     29.86R
GWINNER        FAIR      64  59  82 NW5       29.84R
SHEYENNE NWR     N/A     66  60  81 NE5       29.95S
ROLLA          CLOUDY    57  57 100 N10       29.93R
 ***** THE ABOVE OBSERVATIONS ARE NON NWS ARE NOT QUALITY
       CONTROLLED AND MAY MIS-REPORT RAIN FOR SNOW...
$$

  *****  WEATHER ACROSS NORTHERN MINNESOTA  *****

CITY           SKY/WX    TMP DP  RH WIND       PRES   REMARKS
FLAG ISLAND    CLOUDY    57  55  94 NE14G23   29.85S
WARROAD        DRIZZLE   57  54  88 NE9       29.86S
ROSEAU         LGT RAIN  59  54  82 NE10      29.85S
HALLOCK        DRIZZLE   63  59  88 CALM      29.84R
THF RVR FALLS  CLOUDY    61  57  88 NE12      29.84S
6HR MIN TEMP:  61; 6HR MAX TEMP:  66; 6HR PCP:  0.10;

BAUDETTE       CLOUDY    57  55  93 NE13      29.83R
6HR MIN TEMP:  57; 6HR MAX TEMP:  62; 6HR PCP:  0.14;

WASKISH        DRIZZLE   61  57  88 CALM      29.81S
CROOKSTON      LGT RAIN  61  61 100 NE7       29.84R
STEPHEN NDAWN    N/A    N/A N/A N/A E6          N/A
GREENBUSH NDAW   N/A     63  57  82 E10         N/A
$$
  *****  WEATHER ACROSS CENTRAL AND WEST MINNESOTA  *****

CITY           SKY/WX    TMP DP  RH WIND       PRES   REMARKS
FOSSTON        CLOUDY    57  57 100 N8        29.82S
BEMIDJI        RAIN      59  57  94 CALM      29.80S
PARK RAPIDS    CLOUDY    61  57  87 CALM      29.80R
6HR MIN TEMP:  60; 6HR MAX TEMP:  63; 6HR PCP: TRACE;

ELBOW LAKE     DRIZZLE   62  58  87 NW3       29.81R
6HR MIN TEMP:  62; 6HR MAX TEMP:  65; 6HR PCP:  0.02;

WADENA         LGT RAIN  59  55  88 CALM      29.80R
DETROIT LAKES  CLOUDY    59  57  94 NW8       29.82R FOG
MOORHEAD       CLOUDY    63  59  88 N8        29.82S
FERGUS FALLS   CLOUDY    63  55  77 N7        29.77R
MORRIS MN      CLOUDY    63  61  94 CALM      29.80R
STAPLES        CLOUDY    61  55  82 NW6       29.79S
$$
  *****  WEATHER ELSEWHERE ACROSS MINNESOTA  *****

CITY           SKY/WX    TMP DP  RH WIND       PRES   REMARKS
DULUTH         CLOUDY    55  54  96 CALM      29.81S
6HR MIN TEMP:  52; 6HR MAX TEMP:  64; 6HR PCP:  0.02;

INTRNTL FALLS  LGT RAIN  59  57  93 NE6       29.81S VSB 3/4
6HR MIN TEMP:  59; 6HR MAX TEMP:  60; 6HR PCP:  0.08;

ELY            PTSUNNY   63  61  94 CALM      29.80S
CLOQUET        LGT RAIN  55  54  94 E3        29.80S
WHEATON        CLOUDY    68  59  73 W3        29.82S
BRAINERD       CLOUDY    61  57  87 CALM      29.80R
6HR MIN TEMP:  59; 6HR MAX TEMP:  61; 6HR PCP:  0.06;

HIBBING        LGT RAIN  60  58  92 CALM      29.79F
6HR MIN TEMP:  58; 6HR MAX TEMP:  60; 6HR PCP: TRACE;

ALEXANDRIA     CLOUDY    62  57  83 NW3       29.81R
6HR MIN TEMP:  61; 6HR MAX TEMP:  63; 6HR PCP:  0.04;

SAINT CLOUD    CLOUDY    63  60  90 NW8       29.79R
6HR MIN TEMP:  60; 6HR MAX TEMP:  64; 6HR PCP:  0.07;

MINNEAPOLIS    LGT RAIN  65  60  84 N3        29.77S
6HR MIN TEMP:  64; 6HR MAX TEMP:  68; 6HR PCP:  0.29;

$$

  *****  WEATHER ACROSS SOUTH DAKOTA  *****

CITY           SKY/WX    TMP DP  RH WIND       PRES   REMARKS
SIOUX FALLS    RAIN      59  55  87 N14       29.83R FOG
6HR MIN TEMP:  59; 6HR MAX TEMP:  70; 6HR PCP:  0.23;

BROOKINGS      CLOUDY    63  57  81 N8        29.84R
WATERTOWN      CLOUDY    65  56  72 N6        29.84R
6HR MIN TEMP:  63; 6HR MAX TEMP:  65; 6HR PCP: TRACE;

HURON          CLOUDY    66  58  75 N5        29.86R
6HR MIN TEMP:  60; 6HR MAX TEMP:  67; 6HR PCP:  0.38;

SISSETON         N/A     68  54  60 N8        29.81R
ABERDEEN       PTSUNNY   70  57  63 NE5       29.84S
6HR MIN TEMP:  62; 6HR MAX TEMP:  70; 6HR PCP:  0.04;

MITCHELL       CLOUDY    65  58  78 NW7       29.87R
PIERRE         PTSUNNY   72  55  55 SE8       29.86R
6HR MIN TEMP:  70; 6HR MAX TEMP:  75;

MOBRIDGE       CLOUDY    73  51  46 CALM      29.84R
RAPID CITY     PTSUNNY   65  50  58 S7        29.96R
6HR MIN TEMP:  57; 6HR MAX TEMP:  70; 6HR PCP:  0.05;

$$

  *****  SOME WEATHER IN NEARBY STATES *****

CITY           SKY/WX    TMP DP  RH WIND       PRES   REMARKS
GLASGOW MT     MOSUNNY   65  41  41 NW14      29.92R
6HR MIN TEMP:  59; 6HR MAX TEMP:  67;

GREAT FALLS MT CLOUDY    62  27  26 W15       29.98S
6HR MIN TEMP:  55; 6HR MAX TEMP:  63;

CHEYENNE WY    PTSUNNY   63  36  36 W13       30.06S
6HR MIN TEMP:  59; 6HR MAX TEMP:  70; 6HR PCP: TRACE;

SCOTTSBLUFF NE MOSUNNY   75  43  31 N12       29.95R
6HR MIN TEMP:  70; 6HR MAX TEMP:  78; 6HR PCP: TRACE;

OMAHA NE       MOSUNNY   73  55  53 W18       29.85R
6HR MIN TEMP:  69; 6HR MAX TEMP:  75; 6HR PCP: TRACE;

DES MOINES IA  MOSUNNY   74  58  57 SW14      29.81R
6HR MIN TEMP:  65; 6HR MAX TEMP:  75; 6HR PCP:  0.42;

DAVENPORT IA   CLOUDY    78  61  55 SW16G23   29.84R
6HR MIN TEMP:  69; 6HR MAX TEMP:  82;

CHICAGO IL     PTSUNNY   79  64  60 S22G30    29.88R
6HR MIN TEMP:  74; 6HR MAX TEMP:  81;

EAU CLAIRE WI  CLOUDY    64  60  87 W8        29.77R
6HR MIN TEMP:  65; 6HR MAX TEMP:  77; 6HR PCP:  0.16;

LA CROSSE WI   PTSUNNY   73  62  68 S12       29.77R
6HR MIN TEMP:  70; 6HR MAX TEMP:  80; 6HR PCP: TRACE;

$$

  *****  SOME NATIONAL WEATHER *****

CITY           SKY/WX    TMP DP  RH WIND       PRES   REMARKS
LA GUARDIA NY  MOCLDY    82  69  64 S5        30.08R
6HR MIN TEMP:  81; 6HR MAX TEMP:  91; 6HR PCP: TRACE;

RALEIGH NC     MOCLDY    80  61  52 E6        30.12R
6HR MIN TEMP:  80; 6HR MAX TEMP:  87;

ATLANTA GA     PTCLDY    83  53  35 SE10      30.10R
6HR MIN TEMP:  83; 6HR MAX TEMP:  87;

NEW ORLEANS LA CLOUDY    78  68  71 SE12      30.04R
6HR MIN TEMP:  75; 6HR MAX TEMP:  87; 6HR PCP:  0.07;

OKLAHOMA CITY  MOSUNNY   81  63  54 S5        29.95R
6HR MIN TEMP:  78; 6HR MAX TEMP:  84;

ALBUQUERQUE NM MOSUNNY   79  22  12 VRB3      30.02F
6HR MIN TEMP:  72; 6HR MAX TEMP:  81;

SALT LAKE CITY MOSUNNY   74  38  27 N13       30.00S
6HR MIN TEMP:  67; 6HR MAX TEMP:  76;

LOS ANGELES CA PTSUNNY   63  55  75 W15       29.87F
6HR MIN TEMP:  63; 6HR MC1F1C2F2C3F3C4F4C5F5C6F6C7F7C8F8C9F9CaFaCbFbCcFcCd!



USA.gov is the U.S. government's official web portal to all federal, state and local government web resources and services.